Regional Weather Roundup
Issued by NWS

Home | Current Version | Previous Version | Graphics & Text | Print | Product List | Glossary On
Versions: 1 2 3 4 5 6 7 8 9 10 11 12 13 14 15 16 17 18 19 20 21 22 23 24 25 26 27 28 29 30 31 32 33 34 35 36 37 38 39 40 41 42 43 44 45 46 47 48 49 50
280
ASUS44 KLIX 230801
RWRLA
LOUISIANA WEATHER ROUNDUP
NATIONAL WEATHER SERVICE NEW ORLEANS LA
300 AM CDT SAT AUG 23 2014

NOTE: "FAIR" INDICATES FEW OR NO CLOUDS BELOW 12,000 FEET WITH NO
      SIGNIFICANT WEATHER AND/OR OBSTRUCTIONS TO VISIBILITY.
      SKY/WX - SKY CONDITION AND SIGNIFICANT WEATHER.
      TMP - AIR TEMPERATURE.    DP   - DEWPOINT TEMPERATURE.
      RH  - RELATIVE HUMIDITY.  PRES - PRESSURE.
      HX  - HEAT INDEX.         WCI  - WIND CHILL INDEX.

*  THESE STATIONS ARE NOT NWS OR FAA STATIONS AND ARE NOT UNDER
   NWS QUALITY CONTROL.

LAZ040-048-061>063-065-066-069-230900-
SOUTHEAST LOUISIANA

CITY           SKY/WX    TMP DP  RH WIND       PRES   REMARKS
N.O. AUDUBON     N/A     82  78  89 MISG        N/A
N.O. INTL ARPT CLEAR     81  76  84 W6        30.00F
N.O. LAKEFRONT CLEAR     84  76  76 SW8       30.00F
N.O. DOWNTOWN* PTSUNNY   84  73  70 SW5       30.01F
SLIDELL        CLEAR     78  74  87 CALM      29.99F
BATON ROUGE    CLEAR     79  75  87 CALM      30.01S
BOOTHVILLE     CLEAR     82  77  84 W3        30.01S
BELLE CHASSE   CLEAR     79  74  84 W3        30.00F
BOGALUSA*        N/A     78  74  86 CALM      30.01S
GALLIANO*      NOT AVBL
NEW ROADS*     FAIR      75  75  98 CALM      30.01S FOG
GONZALES*      FAIR      78  78 100 CALM      30.00S
HAMMOND*       NOT AVBL
HOUMA*           N/A     77  74  90 CALM      30.00F FOG
PORT FOURCHON* MOSUNNY   86  75  70 CALM      30.02S HX  95

$$

LAZ041-044-053-054-230900-
SOUTHWEST LOUISIANA

CITY           SKY/WX    TMP DP  RH WIND       PRES   REMARKS
LAKE CHARLES   CLEAR     78  76  93 CALM      29.99S
LAFAYETTE      CLEAR     79  77  94 CALM      30.00F
PATTERSON      CLEAR     77  77 100 CALM      30.04S
SALT POINT       N/A     85  78  80 CALM      30.00S HX  96
NEW IBERIA     CLEAR     77  75  93 CALM      30.01F FOG
CHENAULT AIRPK CLEAR     78  75  90 CALM      30.00S

$$

LAZ027-028-230900-
CENTRAL LOUISIANA

CITY           SKY/WX    TMP DP  RH WIND       PRES   REMARKS
FORT POLK      CLEAR     77  73  87 W3        30.01S
ALEXANDRIA INT CLEAR     76  73  91 CALM      29.99S
ALEXANDRIA     CLEAR     74  72  93 CALM      30.01S FOG

$$

LAZ001-002-230900-
NORTHWEST LOUISIANA

CITY           SKY/WX    TMP DP  RH WIND       PRES   REMARKS
SHREVEPORT     CLEAR     78  72  81 S5        29.99F
BARKSDALE AFB  CLEAR     73  71  92 S5        30.00S
DTN SHREVEPORT CLEAR     81  72  74 SW10      29.99F

$$

LAZ014-016-230900-
NORTHEAST LOUISIANA

CITY           SKY/WX    TMP DP  RH WIND       PRES   REMARKS
MONROE         CLEAR     72  70  93 CALM      30.01S FOG
TALLULAH       CLEAR     71  70  96 CALM      30.00F

$$




USA.gov is the U.S. government's official web portal to all federal, state and local government web resources and services.